Temp
17 17 17 17 17 18 18 18 18 17 17 17 17 18 18 18 18 18 18 18 18 18 18 19 19 19 19 19 19 19 19 20 21 21 20 17 16 17 17 17 17 18 18 19 19 20 21 22 22 22 22 22 23 23 22 22 23 22 21 21 21 22 23 23 24 23 23 22 20 19 20 20 17 16 16 16 16 15 15 14 13 13 12 12 11 9 8 7
17 17 17 17 18 18 18 18 18 18 18 18 18 18 18 18 18 18 18 18 18 18 19 19 19 19 19 19 19 19 19 20 22 21 18 17 17 17 17 18 18 18 18 19 20 21 22 23 23 22 22 23 23 22 22 22 22 21 22 21 21 23 22 22 22 22 22 22 21 19 19 19 18 17 16 17 16 15 14 13 12 11 10 10 10 9 8 8
17 17 17 18 18 18 18 18 18 18 18 18 19 19 19 19 19 19 19 19 18 19 19 19 19 19 19 19 19 19 19 21 22 20 18 17 18 18 18 18 18 18 18 18 20 21 21 22 23 23 22 23 23 22 22 22 22 22 22 21 22 23 21 20 20 20 20 21 21 19 18 18 17 16 17 17 16 15 15 13 12 11 9 9 9 9 9 9
17 18 18 18 18 18 19 19 19 18 19 19 19 19 19 19 19 19 19 19 19 19 19 19 19 19 19 19 19 19 19 21 21 20 18 18 18 18 18 18 18 18 18 18 19 19 20 21 22 23 22 22 23 22 22 22 22 22 22 21 21 21 21 19 18 18 18 20 21 19 18 17 15 15 16 17 17 16 15 12 11 11 9 9 9 9 9 9
18 18 18 18 19 19 19 19 19 19 19 20 20 20 20 20 19 19 19 19 19 19 19 19 19 19 19 19 19 19 20 21 20 19 18 18 18 18 18 18 18 18 18 18 19 20 20 22 22 22 22 22 23 22 22 23 22 22 21 20 19 20 20 17 16 16 16 19 20 19 18 16 15 15 15 16 17 15 12 10 9 10 9 9 9 9 9 9
18 18 18 19 19 19 19 19 19 20 20 20 20 20 20 20 20 20 19 19 19 19 19 19 19 19 19 19 19 19 20 20 19 18 18 17 18 18 18 18 18 18 18 18 20 21 21 22 22 22 22 22 23 22 23 23 22 21 21 19 17 18 18 16 16 15 16 19 19 18 16 15 15 14 13 13 13 11 9 9 9 9 9 9 8 9 9 9
18 18 19 19 19 19 19 20 20 20 20 20 20 20 20 20 20 20 20 19 19 19 19 19 19 18 18 19 19 20 21 20 18 17 17 17 17 18 18 18 18 18 18 19 21 21 21 22 22 22 23 22 23 23 22 22 21 21 20 18 16 16 16 15 15 15 16 17 16 15 15 15 15 14 12 11 9 8 8 8 8 8 7 7 8 8 9 8
18 18 18 19 19 19 19 20 20 20 20 20 20 20 20 19 19 20 20 19 19 19 19 19 19 19 19 19 20 21 21 19 18 16 16 17 17 17 18 18 18 18 19 20 20 21 21 22 22 22 23 22 23 22 21 21 21 21 20 17 16 16 15 15 15 15 15 15 14 15 14 14 13 13 12 10 8 8 8 8 8 8 7 7 7 7 8 8
18 18 18 19 19 19 19 20 20 20 20 20 20 20 19 19 19 20 19 19 19 19 19 19 19 19 19 19 21 22 19 17 17 16 16 17 17 17 17 18 18 19 20 20 20 21 21 22 22 22 22 22 22 21 20 21 20 19 18 17 16 16 15 15 15 14 15 14 15 15 14 12 11 12 13 10 8 8 8 8 7 7 7 7 7 7 7 7
18 18 18 19 19 19 19 20 20 20 19 19 19 19 19 19 19 20 19 19 19 19 19 19 19 19 19 20 22 21 18 16 16 16 16 17 17 17 17 18 18 19 20 20 20 21 21 21 22 22 21 21 21 20 19 20 19 18 17 17 16 16 15 15 15 14 15 14 14 15 14 13 11 12 13 10 8 8 7 7 7 7 7 6 6 6 6 6
18 18 18 18 19 19 19 20 19 19 19 19 19 19 19 19 19 19 19 19 19 19 19 19 19 19 20 22 22 20 17 16 16 16 16 17 17 17 17 17 17 19 20 20 20 19 20 20 21 21 21 21 20 19 18 18 18 18 17 17 16 16 15 15 15 15 15 14 14 15 14 13 11 12 13 9 8 8 8 8 7 7 7 6 6 6 6 5
18 18 18 18 19 19 19 19 19 19 19 18 19 19 19 19 19 19 19 19 19 19 19 19 19 19 21 21 19 18 16 16 16 16 16 16 17 17 17 17 17 18 19 20 20 18 18 19 20 20 19 20 20 18 17 17 18 18 18 17 16 17 16 15 15 15 15 15 14 14 14 14 13 12 11 8 8 8 8 8 8 7 7 6 6 5 6 5
18 18 18 19 19 19 19 19 19 19 19 19 19 19 19 18 19 19 19 19 19 19 19 19 19 19 21 20 18 17 16 16 16 16 16 17 17 17 17 17 17 17 18 19 18 17 17 18 20 20 19 19 19 17 17 18 18 18 18 19 17 18 17 15 15 15 15 14 13 14 16 17 15 12 10 8 9 8 9 9 8 8 7 7 6 6 6 5
18 18 18 19 19 19 19 19 20 19 19 19 19 19 18 18 19 19 19 19 19 19 19 19 19 20 20 19 17 17 16 16 16 16 17 17 17 18 17 17 17 17 17 18 17 17 17 18 20 19 18 18 17 16 17 17 18 18 18 18 18 19 17 15 15 15 15 14 13 14 15 18 15 11 9 9 9 9 9 10 9 9 8 7 6 6 6 5
18 18 18 19 19 19 19 19 19 19 19 19 19 19 18 18 18 19 18 18 19 19 19 19 19 20 20 18 18 17 17 17 17 16 16 16 17 19 18 18 18 17 17 18 17 17 18 19 20 19 17 17 17 17 18 18 18 18 18 18 19 19 17 15 14 15 15 14 14 14 15 18 16 11 10 9 9 9 10 10 10 9 8 8 7 6 6 6
18 18 18 18 18 19 19 19 19 19 19 18 19 19 18 19 18 19 19 18 19 19 19 20 20 21 20 18 18 18 18 18 17 16 16 15 16 17 18 18 18 18 18 18 18 18 19 20 18 18 18 17 18 18 19 19 19 19 18 19 19 19 18 16 14 14 14 14 15 15 15 17 16 11 10 9 9 9 10 11 10 10 9 9 8 7 7 7
17 18 18 18 18 18 18 19 19 19 19 19 19 19 18 19 18 19 19 19 19 19 20 20 20 20 19 18 18 18 18 17 16 16 16 16 16 16 17 19 19 19 19 19 19 19 20 19 17 17 19 19 19 19 19 19 19 19 19 19 19 18 18 17 15 13 14 14 14 15 14 16 16 12 10 9 9 9 9 10 11 10 10 9 9 9 8 7
17 17 18 18 18 18 18 18 19 18 18 18 18 19 19 19 18 19 18 19 20 20 20 19 19 20 18 18 18 17 17 17 16 16 16 16 16 16 17 19 19 19 20 20 20 20 20 19 19 19 20 19 18 18 18 17 17 17 17 18 18 17 18 17 15 13 13 14 14 15 15 16 17 14 10 10 9 9 9 10 11 10 10 10 9 9 9 8
17 17 18 18 18 18 18 18 18 18 18 18 18 18 19 19 19 19 18 18 19 19 19 18 18 18 18 17 17 17 17 16 16 17 16 16 16 16 17 19 19 19 20 19 19 19 19 19 19 19 18 16 15 15 15 15 15 15 16 16 16 17 17 16 14 12 12 13 13 15 15 16 17 15 12 10 9 9 10 10 10 10 10 10 10 9 9 9
17 17 18 18 18 18 18 18 18 18 18 18 18 18 19 20 20 19 17 17 16 16 17 16 16 17 17 17 17 16 16 16 17 17 16 15 16 17 19 19 19 19 18 18 18 18 17 18 17 16 15 14 14 13 13 14 14 15 15 16 16 16 16 16 14 12 11 12 14 15 15 15 16 16 15 12 10 9 9 10 10 10 10 10 10 9 9 9
17 17 18 18 18 18 18 18 18 19 18 18 18 19 20 20 20 18 16 16 15 16 16 16 16 17 16 16 16 15 16 17 18 18 16 15 17 17 19 19 19 19 17 16 17 17 17 17 14 13 13 12 12 12 13 13 14 15 15 16 16 16 16 16 14 12 11 11 14 15 15 15 15 16 17 13 10 10 10 10 10 10 10 10 10 9 9 9
17 18 18 18 18 18 18 18 18 19 18 18 18 20 20 18 18 18 17 17 15 16 17 16 17 17 16 16 15 14 15 17 18 17 15 16 18 18 18 19 19 18 17 16 17 18 17 15 13 13 12 12 12 13 13 13 14 15 16 16 16 16 15 15 13 12 12 12 13 15 14 14 15 16 17 13 11 11 11 11 11 11 10 10 10 10 10 10
18 18 18 19 18 18 18 18 19 19 18 18 19 20 18 17 17 17 18 18 16 15 17 16 16 17 16 16 15 15 16 15 16 16 14 15 17 16 17 18 18 17 17 17 18 18 17 14 13 12 12 12 14 14 13 14 15 15 16 15 15 15 14 14 13 12 13 12 12 13 12 13 15 16 16 14 12 12 12 11 11 11 11 11 11 10 10 10
17 18 18 18 18 18 18 18 18 18 18 18 19 19 18 17 18 17 18 19 17 16 16 15 16 16 15 15 14 15 16 15 14 15 13 14 15 15 16 16 16 17 16 16 17 16 14 13 12 11 12 13 14 14 14 14 15 15 14 14 14 13 13 13 13 13 14 13 11 11 13 16 17 16 16 15 13 12 11 11 10 10 11 11 11 11 10 10
17 18 18 18 18 18 18 18 18 17 18 18 18 18 18 18 17 17 18 19 18 17 16 15 16 16 14 14 15 15 15 15 14 14 13 13 13 14 15 14 15 16 14 15 16 15 13 12 12 12 13 13 13 14 13 13 15 15 13 12 12 12 12 12 13 13 14 14 11 11 15 18 18 17 16 14 12 11 11 10 10 10 10 10 10 10 10 10
18 18 18 18 18 18 18 19 17 17 18 17 16 17 18 17 17 17 18 20 19 17 16 16 16 15 14 15 15 14 15 15 14 14 13 12 12 13 14 15 15 15 13 14 15 14 13 12 12 13 13 13 14 14 13 12 15 15 12 11 11 11 11 12 13 13 14 15 13 12 14 16 17 19 18 15 12 13 12 11 11 11 10 10 10 10 10 10
18 18 18 18 18 17 18 19 18 17 17 16 16 17 18 17 17 17 18 20 19 16 16 17 16 15 15 15 15 15 15 15 14 14 14 12 12 13 14 15 15 14 12 13 14 13 13 13 13 13 13 14 15 14 13 12 13 14 11 10 11 11 11 12 12 13 14 15 14 13 13 14 16 18 17 15 14 14 14 13 12 12 11 11 11 10 10 10
18 18 18 18 17 17 17 18 18 17 17 16 16 17 17 17 17 17 19 20 18 16 16 16 15 15 15 15 16 15 14 14 14 15 14 13 13 14 15 14 14 14 12 12 15 13 12 13 12 12 13 15 14 13 12 11 12 13 10 10 11 11 12 12 12 14 14 14 14 14 13 13 15 17 15 13 14 15 15 15 14 13 13 12 12 11 11 11
18 18 17 17 17 17 17 17 17 16 16 16 16 17 17 17 17 19 20 19 17 15 15 15 15 15 15 15 15 15 14 13 14 14 14 14 14 14 14 13 13 14 12 13 14 12 11 12 11 11 13 13 13 12 12 11 12 12 10 10 10 10 11 12 12 14 14 13 14 14 13 13 16 18 17 14 15 16 17 17 17 16 15 13 13 12 12 12
17 17 17 17 17 17 17 16 16 15 15 15 16 16 16 17 18 19 20 18 16 15 15 16 15 14 14 15 15 14 14 13 13 14 14 14 14 14 12 11 13 14 13 13 13 12 11 10 9 10 12 12 12 12 11 11 12 11 10 11 11 11 12 12 13 14 13 14 14 13 12 13 14 17 19 17 16 17 17 18 18 17 16 15 14 13 13 12
17 17 17 17 17 16 17 16 15 15 15 16 16 17 17 19 19 20 19 16 16 16 15 14 14 13 14 14 15 14 14 13 12 13 15 14 15 15 13 12 13 14 15 15 13 12 11 11 11 11 10 10 11 11 11 10 10 10 11 13 14 14 14 14 14 13 14 15 13 11 12 12 12 16 19 19 17 17 16 17 17 17 17 16 15 14 13 13
17 17 17 17 16 16 17 16 15 14 15 16 17 18 19 19 19 20 18 16 16 16 14 13 13 13 13 13 14 13 13 13 13 12 13 14 14 13 12 13 13 14 16 16 14 13 12 12 12 10 10 10 11 12 12 11 11 12 13 15 15 16 15 15 15 15 15 15 12 11 11 12 13 16 18 18 18 17 17 16 16 16 17 16 15 14 13 12
16 15 16 16 16 16 15 15 15 15 16 16 17 19 19 19 19 17 16 17 16 13 12 12 13 13 13 14 14 12 12 13 13 12 11 13 14 12 10 11 11 13 15 16 15 16 15 13 12 11 10 10 11 13 14 13 13 14 14 14 14 15 14 14 15 16 16 14 12 11 11 11 14 17 17 18 18 17 16 15 15 15 15 15 14 13 12 11
15 15 15 15 15 14 14 14 15 15 16 17 19 19 19 19 18 14 15 17 14 12 12 12 12 13 13 14 13 11 13 13 12 13 13 14 15 14 12 11 11 12 14 15 15 15 15 14 13 12 11 11 11 12 12 12 13 13 13 13 14 14 13 13 14 14 14 14 13 11 10 12 15 17 16 17 16 15 15 14 13 13 13 13 12 11 11 10
15 15 15 14 14 14 14 14 15 15 17 18 19 19 19 19 18 16 17 16 13 13 12 11 12 14 15 14 12 10 11 13 12 13 14 15 15 15 14 12 11 11 12 14 13 12 15 16 12 10 10 11 11 11 10 11 12 13 13 13 13 13 13 13 12 12 11 11 11 11 12 14 17 17 17 17 16 15 14 14 13 12 12 11 11 11 10 10
15 15 15 14 13 14 14 15 15 16 17 19 19 20 19 17 17 17 15 13 13 14 13 13 13 16 17 15 13 11 10 11 13 13 14 14 14 13 12 11 10 10 11 13 13 13 15 16 11 9 10 10 10 10 9 11 12 13 13 13 12 11 12 12 11 11 9 9 12 13 13 15 16 17 17 16 15 15 14 14 13 13 13 11 11 11 11 11
15 15 15 14 13 14 14 15 16 17 18 19 19 18 16 14 13 13 11 10 12 12 14 16 15 15 18 17 15 13 11 11 13 14 15 14 13 13 12 10 9 9 9 10 12 12 13 14 12 11 11 9 8 9 9 9 10 12 13 12 11 10 11 11 11 11 11 11 13 14 13 14 14 15 16 16 16 16 16 15 15 14 13 12 12 12 12 12
15 15 15 14 14 15 15 16 17 18 19 19 18 15 14 13 11 10 10 10 11 11 14 18 15 13 16 17 16 13 12 14 14 15 16 15 14 12 12 11 9 8 8 8 11 11 11 13 13 11 11 10 8 9 10 9 9 10 11 11 11 11 11 12 11 11 12 11 13 14 13 13 13 14 16 16 16 17 16 16 16 15 14 14 13 13 13 12
15 16 16 15 15 15 16 17 17 19 20 19 18 16 13 12 10 8 8 9 10 12 15 16 14 13 14 15 15 13 11 13 15 15 16 15 14 12 11 11 9 8 8 8 10 11 10 13 13 11 10 10 9 10 12 11 9 9 10 11 11 11 11 12 11 10 11 11 11 12 12 13 15 16 16 16 16 16 16 16 16 15 15 15 14 14 14 13
16 17 17 15 15 16 16 17 18 19 19 17 17 15 12 11 9 7 6 7 10 12 14 15 14 14 14 13 13 13 12 12 14 15 15 14 14 12 10 11 10 8 8 8 9 11 11 12 13 12 10 11 12 12 13 14 12 10 10 10 10 10 10 10 10 10 11 11 11 11 11 13 16 17 17 16 16 16 15 15 15 15 14 14 14 14 14 13
16 18 17 15 16 16 17 18 17 16 17 15 14 13 11 11 9 7 5 5 8 10 11 12 13 14 15 14 13 13 13 13 13 14 15 14 14 14 11 10 10 9 8 8 9 10 11 12 13 13 12 13 13 11 10 11 11 11 12 11 11 11 10 10 10 9 9 10 10 10 10 12 15 17 16 16 16 15 15 15 14 14 14 14 14 14 14 13
17 18 16 15 16 16 18 17 13 13 16 14 12 10 10 10 10 8 7 6 7 9 9 10 12 13 14 14 13 13 13 14 13 13 14 14 14 13 10 9 10 9 9 10 9 9 9 11 11 12 13 14 12 8 7 8 9 10 11 12 12 12 11 11 11 9 8 8 8 8 8 10 14 16 15 15 15 15 15 14 13 13 13 14 14 13 13 13
18 17 15 15 16 16 17 16 13 13 14 10 9 9 9 10 10 9 8 8 9 10 11 11 11 12 12 12 12 13 13 13 14 14 14 14 12 9 6 7 9 9 9 10 9 8 8 10 11 12 15 14 9 7 7 7 8 9 10 11 11 11 11 10 10 9 9 8 8 8 8 10 14 16 15 15 15 14 14 13 13 13 13 13 13 13 13 13
16 16 15 15 15 16 17 18 16 14 11 9 10 10 9 9 10 9 10 10 10 11 12 12 11 11 11 11 11 12 12 13 14 13 12 13 10 5 4 6 7 8 9 8 9 9 9 12 12 12 14 14 12 11 10 8 8 10 11 11 11 10 8 7 7 8 8 9 10 9 9 12 14 14 14 14 14 13 13 13 13 13 13 13 13 13 13 12
16 16 16 15 15 15 15 15 16 14 11 11 12 11 10 10 9 9 10 10 10 10 12 12 10 10 10 10 11 11 11 12 13 12 10 11 10 5 3 4 4 7 7 4 6 8 9 12 12 12 13 14 14 15 14 12 11 11 12 11 9 8 7 7 9 9 8 9 10 10 10 13 14 14 14 14 14 14 14 14 14 14 14 14 13 13 12 12
17 17 17 17 15 15 13 11 14 15 12 12 13 12 12 12 9 8 9 10 9 9 11 10 9 10 10 10 11 12 11 11 11 10 9 10 10 6 2 2 3 4 3 2 4 7 9 10 10 11 12 13 14 15 14 13 12 12 12 10 8 7 7 8 9 9 9 10 10 10 11 12 13 14 14 14 14 14 14 14 14 14 14 14 13 13 12 12
17 18 17 16 16 15 14 13 14 15 13 14 15 13 12 13 11 9 8 9 9 9 10 11 10 11 11 11 12 13 12 11 10 9 9 9 10 6 1 1 3 2 1 3 5 6 8 9 9 10 11 11 12 13 12 12 11 11 11 11 9 6 5 6 7 9 10 10 9 11 12 11 12 13 13 13 14 13 14 14 14 13 13 13 12 12 12 12
16 16 13 12 14 16 15 14 14 13 13 14 14 12 13 13 12 11 10 9 8 9 10 11 10 11 12 12 13 14 12 11 11 10 9 8 9 8 5 3 3 2 3 4 5 6 8 9 8 8 8 9 10 10 10 10 10 10 11 10 10 8 5 6 7 8 10 9 9 11 12 11 12 13 13 13 13 13 13 13 13 12 12 12 12 12 12 12
13 14 10 9 12 13 12 11 13 13 13 13 13 12 13 14 13 13 11 9 9 9 11 12 12 12 12 12 13 13 13 13 13 11 9 8 8 8 9 7 4 3 4 6 5 5 7 8 7 6 6 8 9 10 10 10 10 10 10 10 11 9 7 7 7 8 9 9 10 10 10 10 11 12 12 12 12 12 12 12 12 12 12 12 12 12 12 12
14 15 13 11 12 11 10 11 13 15 14 13 14 14 13 14 14 13 11 11 12 11 10 12 13 13 12 12 12 13 13 14 14 12 10 9 9 8 10 10 7 3 4 6 5 4 6 8 6 5 6 8 10 11 11 10 10 9 10 10 10 10 9 8 7 8 8 8 9 9 9 9 10 11 12 12 12 12 12 12 12 12 12 12 12 12 12 12
13 13 13 15 15 11 11 13 13 16 16 15 15 15 13 14 15 13 13 12 13 13 11 11 13 12 11 11 11 13 14 13 13 12 10 10 11 10 11 11 8 4 4 5 5 4 5 7 7 6 7 9 11 10 10 10 10 9 10 11 11 11 10 9 9 8 8 7 8 8 7 8 10 12 12 12 12 12 12 12 12 12 12 12 12 12 11 11
11 12 13 16 16 12 12 14 13 16 17 16 15 14 13 14 14 14 15 13 11 11 11 11 13 12 11 11 11 11 11 10 10 10 9 9 10 10 10 10 9 7 5 4 5 5 5 6 8 8 8 10 11 10 9 10 10 11 12 12 13 13 12 11 11 10 9 9 8 8 8 10 12 12 12 12 12 12 12 12 12 12 12 12 11 11 11 11
Height
819 819 819 818 818 817 817 816 816 815 815 814 813 813 813 812 812 812 812 811 812 812 812 812 812 812 813 813 813 813 813 813 813 813 814 816 817 816 814 813 811 810 809 808 807 807 805 804 804 804 804 803 802 800 802 802 801 805 809 813 811 803 798 792 791 794 794 798 804 807 806 809 817 821 820 820 821 824 827 830 832 833 834 836 835 836 841 844
820 819 819 818 818 817 816 816 815 814 814 813 813 813 812 812 811 811 811 811 811 811 811 812 812 812 813 813 813 813 813 813 812 813 816 816 816 814 813 812 810 809 808 808 807 806 804 802 802 803 803 802 802 801 802 802 803 806 806 810 807 798 798 796 795 797 797 800 803 807 808 809 814 818 819 820 823 825 827 833 836 838 839 839 840 841 843 845
820 819 819 818 817 816 816 815 815 814 813 813 812 812 811 811 810 810 810 810 810 811 811 811 812 812 813 813 813 813 813 812 811 814 816 815 815 813 812 810 809 809 808 808 807 806 805 803 802 802 802 801 800 801 802 802 803 803 803 807 804 797 799 802 802 803 804 802 803 808 810 812 816 819 818 818 822 824 825 832 836 839 842 842 842 843 844 846
820 819 819 818 817 816 815 815 814 814 813 812 812 811 811 810 810 810 809 809 810 810 811 811 811 812 813 813 814 814 814 812 812 815 815 814 813 811 810 809 808 808 807 808 807 807 806 804 803 801 802 802 798 800 802 802 802 800 802 806 803 799 801 807 809 809 808 804 804 808 812 816 820 821 819 816 819 821 824 833 835 837 842 843 844 844 846 847
820 819 819 818 817 816 815 815 814 813 812 812 811 811 810 810 809 809 809 809 810 810 811 811 812 812 813 813 814 814 815 816 816 816 815 813 812 810 809 808 807 807 807 807 807 806 805 803 802 802 802 801 799 802 800 798 800 801 803 806 807 804 805 813 814 814 813 807 806 809 813 818 821 823 822 818 818 822 830 837 839 839 841 843 845 845 846 847
819 818 818 817 816 816 815 815 814 813 812 812 811 811 810 809 809 809 808 808 809 810 811 811 812 812 813 813 814 814 815 819 818 816 815 813 811 809 808 808 807 807 806 807 806 805 804 802 802 802 802 800 798 800 798 796 800 803 804 808 812 810 811 817 817 817 816 810 810 813 816 820 822 825 828 827 828 834 839 840 841 843 843 844 846 846 846 848
819 818 817 817 816 816 815 815 814 813 812 812 811 810 810 809 808 808 808 808 809 810 811 811 811 812 813 813 814 813 813 816 818 816 815 812 811 809 808 808 807 807 806 806 805 803 803 802 802 800 799 800 797 797 798 799 801 803 806 811 815 815 817 820 819 820 817 815 818 819 820 823 823 824 828 833 838 841 842 842 843 844 845 847 847 847 847 848
819 818 817 817 817 816 816 815 814 813 812 812 811 810 809 809 808 808 808 808 809 810 811 811 811 812 813 813 813 812 813 818 818 817 815 812 811 810 809 808 807 807 807 806 805 803 803 802 800 799 799 800 797 798 801 801 802 803 807 813 817 819 820 821 821 821 820 821 823 821 823 826 826 826 828 835 840 841 842 843 844 845 846 847 847 848 848 849
819 818 817 817 817 816 816 815 814 813 812 812 811 810 810 809 808 808 808 809 810 811 811 812 812 813 813 813 811 811 817 821 819 817 815 813 812 811 810 809 808 808 806 806 805 803 803 801 800 799 800 799 797 801 803 804 805 806 810 814 817 820 821 821 821 823 822 823 823 822 826 829 831 829 828 835 840 841 842 843 844 845 846 847 848 849 849 849
818 818 817 817 817 817 816 815 815 814 813 812 811 811 810 809 809 809 809 809 810 811 812 812 813 813 814 812 810 814 820 821 819 818 815 813 812 811 811 810 809 808 806 806 805 804 803 802 801 799 800 800 800 805 806 807 809 810 813 815 818 820 822 821 822 824 822 824 825 822 824 827 832 829 824 834 840 840 842 843 844 845 846 847 848 849 849 850
818 818 818 818 817 817 817 816 815 814 813 812 811 811 810 810 810 810 810 810 811 812 812 813 813 813 813 811 811 818 822 821 820 818 816 815 813 812 811 810 809 808 807 806 806 806 805 804 802 801 803 801 803 808 809 810 811 811 814 817 820 819 821 821 821 823 821 824 825 822 824 827 832 827 823 833 839 839 841 842 844 844 845 847 848 849 849 850
818 818 818 818 817 817 817 816 815 814 813 812 812 811 811 811 810 811 811 811 812 812 813 813 814 814 813 813 817 822 823 821 820 819 817 816 814 813 812 811 810 809 808 806 807 807 806 806 804 804 806 803 805 811 813 812 810 812 812 815 820 817 819 821 821 823 821 824 827 825 823 819 824 826 826 835 838 838 840 840 843 843 844 846 847 849 849 850
818 818 818 818 818 817 816 816 815 814 814 813 813 812 812 812 812 812 812 812 813 814 814 814 814 814 813 817 823 824 822 822 821 819 817 816 815 814 813 812 811 810 809 807 808 808 807 807 805 805 806 805 809 813 813 812 812 814 810 811 816 814 817 821 821 823 822 825 828 827 819 806 813 825 830 836 836 838 838 837 840 841 843 845 846 848 848 849
819 818 818 818 817 817 816 816 815 815 814 814 814 813 813 813 813 813 813 814 814 815 815 814 815 814 815 820 824 823 822 822 821 819 817 816 815 814 814 813 812 811 810 809 809 809 808 808 805 806 808 808 812 815 814 814 813 813 812 812 811 809 816 823 823 821 822 826 826 828 821 805 812 826 831 835 834 836 835 834 836 838 841 843 844 847 846 848
819 818 818 818 817 817 816 816 815 815 814 814 814 814 814 814 814 814 814 815 815 816 816 815 815 814 816 822 823 823 822 821 821 820 818 816 816 814 814 813 813 812 811 810 810 810 809 808 806 807 812 813 813 814 812 812 811 810 814 812 806 807 815 823 825 822 823 826 824 827 820 804 810 824 830 833 833 834 833 830 833 835 838 840 842 844 844 845
819 818 818 818 817 817 816 816 815 815 815 815 815 815 815 815 815 815 816 816 816 816 816 816 816 814 817 822 822 822 822 822 821 821 819 818 817 815 815 814 813 812 811 811 810 810 809 807 810 811 812 813 812 811 809 809 808 808 812 809 805 808 811 817 826 826 825 826 823 824 820 807 809 822 829 831 832 833 832 829 830 832 834 836 838 840 841 842
819 819 818 818 817 817 816 816 815 815 815 815 815 816 816 816 817 817 817 817 817 818 817 817 816 815 819 823 823 823 823 824 823 821 820 818 817 816 815 814 813 812 811 811 810 810 809 808 813 812 808 808 809 809 811 812 809 806 809 807 808 813 811 813 823 827 826 826 823 821 821 812 807 817 826 828 830 831 830 828 827 829 831 832 834 835 837 839
820 819 819 818 817 817 816 816 816 815 816 816 816 817 817 818 818 818 819 818 817 817 816 817 816 819 824 825 825 826 825 825 823 822 821 819 817 816 816 814 813 812 810 810 809 809 808 808 809 808 809 812 814 816 818 822 821 817 816 813 811 814 813 814 822 828 828 826 824 819 817 810 804 812 822 825 828 829 827 826 826 827 828 829 830 831 833 835
820 819 819 818 818 817 817 817 817 816 816 817 817 818 818 819 819 819 820 819 819 821 823 824 823 826 829 828 828 828 826 826 823 822 821 819 818 817 816 814 813 812 810 810 810 810 811 810 809 812 819 825 828 829 829 831 831 827 825 823 821 818 815 816 824 831 833 829 824 817 812 806 802 807 814 819 824 826 825 824 824 824 825 826 827 828 829 830
820 820 819 818 818 817 818 818 817 818 817 817 818 819 819 818 818 822 824 824 827 830 831 831 830 829 829 829 829 827 826 825 823 823 822 819 819 817 815 814 812 811 815 817 815 814 814 816 822 828 833 837 836 837 837 835 833 830 827 825 824 821 817 818 826 832 836 832 819 812 811 807 803 801 802 812 820 822 823 822 821 821 822 823 824 825 826 827
820 820 819 818 817 817 817 818 818 818 817 818 819 818 818 816 818 824 829 831 833 834 833 833 832 831 832 832 831 830 827 824 822 823 822 820 818 817 815 813 813 813 819 823 820 816 815 823 835 839 840 842 841 841 839 836 834 831 828 825 821 821 820 818 826 832 834 833 820 810 810 805 803 798 794 806 815 816 817 817 817 817 818 820 820 821 822 823
820 819 818 817 817 817 817 817 817 818 818 819 819 818 817 817 818 820 823 830 835 834 833 833 832 832 833 833 832 831 829 826 824 823 824 820 817 818 817 814 815 818 821 822 820 817 821 831 840 841 842 844 841 840 839 836 834 829 825 824 821 822 823 820 826 832 832 832 821 812 813 804 798 794 791 801 808 808 809 810 811 813 814 816 816 818 819 820
819 819 818 817 817 816 817 817 817 818 818 819 819 818 818 818 819 819 819 825 834 835 833 833 832 833 833 833 833 830 829 832 830 828 828 824 820 822 821 818 820 822 822 821 819 818 826 837 842 843 845 842 838 837 837 834 831 828 826 826 825 826 830 827 827 830 827 828 825 821 819 803 791 790 790 796 802 802 806 807 808 809 809 811 811 813 815 816
819 818 817 816 816 816 816 816 817 817 818 819 819 819 820 820 819 820 819 822 830 834 834 835 834 834 835 835 835 832 831 835 834 833 833 830 826 825 826 827 826 825 828 827 824 826 835 843 845 846 845 842 839 835 836 834 826 827 832 833 832 833 836 832 828 826 821 824 832 827 810 789 783 789 788 792 800 802 805 807 807 808 807 808 809 810 811 812
819 817 816 816 816 816 816 816 817 817 818 818 819 820 820 820 820 820 820 823 829 832 834 835 834 835 837 836 836 835 834 835 837 837 836 835 832 829 830 832 829 830 835 831 827 832 840 845 846 845 842 841 840 836 839 840 827 826 837 840 839 838 838 834 830 827 817 816 828 827 806 783 778 783 783 790 800 801 803 806 805 805 806 807 808 806 807 808
819 817 817 816 816 816 816 816 817 817 818 819 819 820 820 821 821 820 821 823 828 834 835 833 834 836 837 836 836 836 835 836 839 839 837 837 836 834 833 832 831 835 839 836 834 837 841 844 846 843 841 840 838 836 842 844 831 826 838 845 843 842 840 835 831 829 818 811 819 824 816 798 782 774 774 785 795 795 796 801 800 800 802 803 803 803 803 804
818 817 817 816 816 817 816 816 817 817 818 819 819 820 821 822 821 821 824 826 831 838 837 833 836 839 838 838 836 835 837 839 839 839 839 838 837 836 833 833 834 836 842 841 837 840 842 843 844 843 841 837 834 836 842 846 838 831 842 849 843 841 839 833 832 828 820 815 816 819 819 812 794 777 775 784 789 788 789 791 793 793 794 795 796 797 798 799
818 817 817 816 816 816 816 816 817 818 817 818 820 821 821 822 821 821 827 835 838 839 839 837 838 840 839 839 837 837 842 841 839 839 839 839 838 835 833 837 838 837 845 842 834 841 847 844 845 845 840 835 835 840 844 847 842 838 847 848 842 842 838 834 833 824 820 821 815 812 817 814 795 777 780 789 786 783 780 779 781 784 786 788 789 791 792 794
818 817 817 817 816 816 817 816 817 818 817 819 820 821 822 822 822 822 828 840 841 840 842 840 839 841 841 841 840 841 843 842 842 841 839 839 838 836 837 842 841 839 843 841 836 844 848 847 850 849 842 839 841 843 846 848 844 842 849 848 845 845 838 835 832 821 823 824 812 810 817 814 795 772 774 786 782 776 773 769 771 774 777 781 783 785 787 789
818 817 817 817 817 817 817 817 818 817 818 820 820 822 823 821 824 829 835 842 842 842 843 840 841 846 844 841 841 842 843 844 845 842 839 839 838 838 842 845 842 840 841 840 840 846 850 852 854 851 846 845 846 845 846 848 844 845 848 843 839 837 834 831 825 822 823 816 812 819 820 819 807 776 761 771 774 770 769 768 768 769 772 776 778 781 783 785
818 817 817 817 817 817 817 818 818 818 820 820 822 823 822 823 826 831 840 843 841 842 844 844 848 849 847 844 843 844 845 846 847 843 839 839 838 838 841 843 841 838 835 836 840 846 850 850 849 850 850 850 849 845 846 848 847 847 841 830 824 820 822 822 819 823 820 806 815 828 824 824 816 784 760 763 769 769 771 771 770 769 770 772 775 777 779 782
819 818 817 816 817 817 817 818 819 820 821 821 823 821 823 829 830 831 839 842 842 844 847 851 851 850 851 849 847 849 848 847 848 848 846 843 842 846 847 846 846 840 830 830 837 840 842 844 845 850 852 852 848 840 840 844 844 841 831 824 822 814 813 816 811 810 807 806 821 830 827 823 806 781 766 763 764 765 768 770 770 770 769 769 773 776 778 780
820 819 818 817 818 818 818 819 820 821 821 823 823 821 826 831 833 839 842 839 844 851 854 855 853 852 852 847 847 853 851 849 849 849 851 847 843 851 857 856 855 848 836 832 834 830 833 840 844 847 848 850 847 837 833 836 834 833 830 828 828 823 824 825 813 803 803 809 819 827 831 820 792 772 766 762 761 763 767 770 771 772 771 770 773 776 778 780
821 820 819 819 819 819 820 820 821 822 823 823 822 825 832 832 837 850 847 840 849 856 855 857 854 852 851 847 851 855 850 850 852 848 848 843 837 842 850 854 856 853 844 838 838 837 833 833 838 842 844 847 846 842 840 840 835 834 836 835 831 829 833 830 820 814 814 813 816 828 830 809 784 771 765 763 764 767 769 771 773 774 774 774 775 777 779 779
823 822 821 821 821 821 822 822 822 823 823 823 824 828 832 831 834 841 840 842 851 853 855 859 855 847 845 848 855 859 855 850 851 849 844 840 838 839 845 852 856 857 849 841 844 847 832 826 840 848 847 847 846 847 851 846 839 836 837 837 832 831 832 831 828 831 836 834 826 825 814 788 772 765 759 762 764 766 769 769 772 774 773 776 777 776 777 777
824 823 822 823 823 823 823 823 823 824 823 824 826 827 830 836 838 837 843 850 850 850 852 853 851 841 836 842 850 857 861 856 850 847 842 842 845 847 851 855 859 863 858 848 847 847 832 827 844 850 847 851 850 851 854 848 841 837 834 834 837 841 839 834 833 838 848 845 820 804 796 780 773 764 756 761 765 764 768 768 769 770 770 773 774 772 773 772
824 824 824 825 824 823 824 824 823 824 823 822 827 832 837 846 850 849 854 857 854 854 849 841 846 845 836 837 842 850 858 856 851 844 839 842 846 849 853 858 863 865 865 860 852 852 847 834 837 845 845 852 857 854 853 853 850 841 835 837 841 845 843 838 839 835 833 826 803 792 794 786 782 775 760 761 764 760 762 763 764 766 766 768 768 767 768 768
825 825 825 825 825 824 824 824 824 824 822 824 833 842 845 849 855 857 860 859 857 856 847 836 845 852 843 837 840 851 856 848 844 841 837 839 843 849 852 856 865 867 868 869 857 856 860 840 833 844 845 849 859 854 846 850 854 847 841 843 843 841 837 834 839 835 827 822 805 795 798 790 781 775 762 759 759 757 758 759 759 762 762 763 763 763 764 764
825 824 824 826 825 825 824 824 824 823 823 826 832 840 847 852 859 863 863 862 858 853 845 840 847 852 848 844 844 852 858 849 841 841 839 838 843 850 853 854 863 868 868 870 860 855 860 846 834 843 847 848 851 846 837 839 850 853 847 845 845 844 839 834 839 837 830 828 815 802 800 785 766 759 757 757 756 756 759 758 757 760 759 759 761 760 761 762
825 824 825 826 825 825 825 824 824 823 827 833 835 840 850 855 861 867 868 867 861 854 848 845 848 849 848 851 849 849 856 853 846 843 841 843 844 848 855 856 859 868 870 870 866 858 857 851 838 838 847 846 837 833 828 824 836 846 844 844 846 847 848 843 841 839 832 828 822 815 804 775 750 749 753 754 754 755 758 758 757 759 759 758 759 758 759 759
825 824 825 826 825 825 824 825 830 833 834 839 843 848 855 856 860 868 872 872 866 860 857 853 849 848 846 849 849 849 852 849 848 846 841 843 844 843 854 858 857 866 869 867 866 860 854 851 841 836 837 830 824 833 837 831 833 834 832 835 835 838 845 841 835 839 844 837 826 823 813 774 744 747 753 752 755 755 755 758 758 759 759 758 757 757 757 757
824 825 827 826 826 825 824 830 842 842 837 842 849 854 858 857 860 865 869 871 868 862 862 859 854 851 848 848 849 851 851 846 847 847 842 842 843 845 856 861 858 862 863 860 862 864 861 855 847 839 827 821 829 842 847 845 841 837 834 830 826 830 836 832 828 835 846 847 837 838 831 782 741 746 754 751 754 755 755 758 759 758 758 756 756 756 755 755
824 825 827 827 826 826 826 834 843 843 844 854 859 859 861 859 859 863 865 865 864 861 859 857 856 854 852 853 853 852 852 848 844 844 843 842 847 858 865 864 862 862 861 860 860 866 866 854 846 837 818 818 837 846 848 850 846 840 834 830 830 831 831 833 835 836 839 838 833 839 829 778 740 746 753 750 754 756 756 759 759 757 756 754 754 754 753 753
826 827 827 827 827 826 827 830 836 842 851 858 857 859 862 860 859 861 860 859 859 859 855 854 857 857 857 858 856 852 853 851 844 844 848 846 853 869 872 867 867 863 860 862 860 862 860 845 840 837 819 814 824 828 834 842 842 835 825 824 829 832 842 850 847 846 842 824 816 825 808 762 742 750 753 752 756 756 756 757 755 755 754 752 752 751 751 751
827 827 828 828 828 828 831 833 833 840 850 853 852 856 857 858 861 862 859 858 860 858 854 855 859 859 859 861 859 856 858 854 847 849 855 852 856 870 875 872 872 866 866 872 869 864 858 845 840 840 829 821 813 808 814 822 825 822 817 821 830 836 846 847 838 841 836 814 807 812 788 751 742 750 751 752 754 753 753 752 750 750 750 748 749 749 748 748
825 826 828 828 829 831 836 839 835 837 846 847 847 852 852 852 860 864 861 859 860 861 858 858 861 860 859 861 857 853 855 856 855 856 859 854 852 865 877 876 874 873 874 878 874 867 860 853 848 841 832 824 812 807 813 818 818 816 814 821 833 841 844 840 835 829 815 806 801 790 774 760 750 749 752 753 752 751 750 749 747 747 747 746 746 746 745 745
825 826 829 830 831 832 835 839 836 836 841 840 839 848 850 849 855 861 863 860 861 862 859 857 860 857 854 856 852 847 850 855 858 860 861 857 854 864 878 878 874 877 879 877 873 868 862 855 850 845 836 827 819 815 818 822 821 816 813 816 826 839 845 843 836 815 801 808 797 768 765 770 755 748 754 753 751 751 749 748 748 747 746 746 744 743 743 742
828 830 836 836 833 832 833 836 837 839 841 839 841 847 847 847 851 854 857 862 863 862 857 854 856 853 849 850 847 844 848 851 853 855 858 859 858 860 868 874 875 876 877 874 870 870 864 853 849 851 844 833 829 827 825 825 822 815 812 811 815 829 840 837 825 807 803 810 789 761 764 767 755 751 752 750 751 751 749 749 748 747 746 744 742 741 740 738
833 833 839 841 837 838 842 842 840 839 840 841 844 846 844 843 845 846 851 859 860 858 855 849 847 847 846 847 846 844 844 842 842 847 854 858 860 857 855 860 870 876 873 869 871 873 864 850 853 862 855 837 829 826 822 822 820 813 809 807 806 812 820 822 815 806 806 803 784 773 773 766 758 757 753 750 753 751 749 749 747 746 744 740 739 738 736 735
830 829 835 838 839 843 847 844 840 836 839 842 841 841 843 841 841 844 849 850 847 851 855 849 841 843 845 845 846 843 839 836 835 841 849 852 854 854 848 844 858 875 874 866 869 874 864 851 854 864 856 833 819 816 817 818 819 814 805 800 801 802 803 808 808 805 807 802 787 783 783 770 759 757 754 752 752 749 748 747 743 742 740 737 736 735 734 733
827 827 829 830 834 843 844 841 840 834 833 837 835 836 841 838 836 841 843 842 840 843 849 847 840 843 848 848 847 840 836 837 837 839 846 845 843 845 843 839 850 868 872 867 868 872 868 856 851 857 850 825 812 817 818 815 817 811 797 788 788 790 791 793 794 795 799 797 789 789 790 774 756 752 752 750 748 747 745 742 741 739 736 736 735 734 733 731
827 828 827 825 831 843 842 838 840 835 829 831 832 835 839 837 837 839 836 839 843 843 845 844 841 843 845 846 846 841 840 843 843 843 845 845 842 842 841 842 846 854 862 867 866 867 867 857 844 847 846 823 811 819 819 817 812 795 780 776 773 773 776 777 778 781 783 786 789 787 777 761 751 751 751 748 746 746 744 742 741 738 735 735 734 733 731 729
Wind_Speed
1 1 1 1 2 2 3 4 4 5 5 6 6 7 8 8 8 8 8 7 7 6 6 4 5 5 5 6 7 9 7 5 5 5 7 8 13 14 15 15 17 19 16 9 7 7 5 6 6 6 7 5 4 2 5 5 3 4 5 6 6 7 5 3 2 3 5 1 6 7 3 3 5 5 5 5 6 8 8 6 6 7 9 11 15 21 21 20
2 1 1 1 1 2 3 4 4 4 5 5 6 7 7 8 8 8 8 7 6 5 5 4 5 6 6 8 10 11 6 4 4 8 8 9 15 15 16 16 17 19 14 8 7 6 6 5 5 7 7 4 3 3 5 4 4 6 5 5 7 5 3 8 6 6 7 3 6 6 2 2 4 6 6 5 7 8 7 6 5 6 8 10 14 17 20 20
2 1 1 2 2 3 3 2 2 2 3 3 4 4 5 6 6 8 8 7 6 5 5 5 6 6 7 9 13 11 2 6 4 6 7 12 17 17 18 17 18 18 10 6 7 6 7 6 3 7 7 5 4 4 5 5 5 6 5 6 4 3 5 9 9 7 5 3 3 5 4 3 4 4 4 5 7 8 6 5 5 7 8 9 12 15 19 19
2 2 3 3 4 3 1 1 2 3 2 1 1 2 2 2 3 5 7 8 7 6 5 6 6 6 7 9 14 11 4 7 3 5 9 16 20 19 18 17 17 13 5 4 7 6 7 6 5 7 7 6 4 4 6 6 4 4 5 5 4 6 3 7 8 6 5 5 1 5 6 5 4 2 3 5 8 7 4 4 3 7 10 10 11 15 17 17
3 4 4 5 6 5 3 3 5 5 2 2 2 3 3 3 2 3 5 8 8 6 6 6 6 5 6 8 11 10 6 5 2 6 13 21 22 19 17 15 12 7 2 4 6 4 6 6 6 7 6 6 5 5 7 7 3 4 2 2 6 6 3 6 7 5 5 4 2 4 5 4 5 2 1 3 5 2 3 5 5 6 8 10 11 13 15 15
4 5 5 7 8 7 5 5 6 6 3 3 3 3 4 4 3 3 3 5 7 6 6 6 6 6 6 7 8 8 5 1 5 10 19 24 20 16 13 10 8 6 3 5 5 5 6 7 7 7 7 6 7 6 5 5 4 5 2 5 6 6 4 5 6 5 5 2 1 2 3 4 5 3 2 2 1 4 4 4 5 5 5 7 9 11 12 13
4 5 6 7 7 7 7 6 6 6 4 3 4 4 4 4 3 2 2 4 6 6 6 6 5 5 6 7 8 7 3 4 9 16 23 22 16 13 10 7 8 7 3 5 5 5 5 7 7 6 7 6 7 6 2 3 5 8 3 5 5 7 6 5 5 4 4 3 4 3 4 3 3 3 3 3 4 4 3 3 4 5 5 6 8 9 11 12
4 5 6 6 7 6 6 6 6 5 4 4 4 4 4 3 3 2 0 5 8 7 7 5 6 9 11 9 5 5 1 7 13 19 22 18 13 11 8 7 8 5 3 4 4 5 4 7 7 5 6 4 4 3 1 4 7 7 2 5 4 5 6 5 5 5 5 5 4 3 3 2 1 1 4 4 4 4 4 4 5 5 6 6 7 7 9 10
4 5 6 6 6 6 6 6 6 6 5 5 4 3 3 2 2 1 4 7 9 8 8 9 12 12 9 4 5 4 4 9 14 18 19 15 12 10 8 7 7 4 3 3 4 5 3 4 4 4 5 3 2 1 1 5 4 1 3 6 5 5 5 4 5 5 4 4 2 2 2 2 2 0 3 4 5 5 5 5 5 5 6 6 6 5 5 7
4 5 5 6 6 5 6 6 6 5 5 4 3 3 2 2 2 4 7 9 9 9 10 13 13 8 3 5 7 2 7 10 12 16 15 12 10 7 7 7 7 5 3 2 3 4 3 3 3 3 4 2 1 1 1 3 0 6 7 7 6 6 5 3 5 4 3 3 1 3 2 3 3 2 3 5 6 6 6 6 5 6 6 5 5 5 5 5
3 4 4 5 5 5 5 5 5 5 5 4 3 4 4 4 5 8 9 9 9 9 10 12 10 4 2 2 2 2 9 10 11 15 11 10 9 7 8 8 8 6 3 2 4 6 5 4 4 2 2 1 3 3 3 2 4 8 8 7 7 6 5 3 3 3 1 2 2 4 2 3 5 3 2 7 8 8 7 7 6 6 6 6 5 5 5 6
3 3 4 4 4 5 5 5 5 5 5 4 4 5 5 6 8 9 9 10 10 11 12 12 9 3 0 7 7 4 9 9 10 13 10 8 9 9 8 7 8 7 4 2 3 5 5 4 4 2 2 2 2 3 4 4 5 7 5 3 6 6 4 2 2 1 2 1 2 3 5 7 10 5 5 9 8 8 8 8 8 7 6 6 6 5 5 7
2 2 3 3 4 4 5 5 4 5 4 3 4 4 5 6 8 10 14 15 13 11 9 7 5 1 3 5 5 4 8 8 10 12 8 7 7 6 8 7 7 7 6 5 5 4 3 4 4 0 3 3 1 3 4 4 4 4 4 3 4 6 3 3 2 1 2 2 1 4 5 4 8 6 7 8 8 9 9 9 9 8 7 6 6 6 6 8
2 2 2 3 3 4 4 4 3 4 3 4 5 5 6 7 8 11 17 14 10 9 5 4 5 1 1 4 3 4 10 8 10 14 11 9 7 2 5 6 6 7 7 8 6 4 3 3 1 4 3 4 3 3 4 5 4 4 3 3 4 5 2 5 3 0 1 3 1 5 5 2 6 7 8 8 9 10 9 10 10 9 8 7 7 7 7 8
3 2 2 2 2 2 2 2 2 2 3 5 5 6 6 7 8 10 15 10 5 7 7 6 3 1 3 6 2 3 11 10 12 15 12 11 9 3 3 4 5 6 6 6 5 4 3 3 1 2 3 2 3 5 4 4 4 3 3 4 4 4 2 6 4 3 2 2 3 4 6 3 5 8 9 9 9 10 9 9 10 10 10 9 8 8 7 8
4 3 2 1 1 0 0 1 2 3 6 7 7 9 9 9 9 9 10 7 3 3 2 2 2 4 1 4 1 3 9 11 12 13 11 10 9 6 3 2 1 3 4 3 2 1 3 2 1 1 2 3 3 3 4 4 5 4 4 5 2 2 2 3 5 4 4 1 5 6 6 6 2 9 9 9 9 10 9 10 10 10 11 10 9 9 8 9
6 5 3 1 0 1 2 2 3 5 7 7 9 10 10 9 9 8 7 6 5 5 4 4 3 1 3 3 2 4 9 11 11 11 11 9 7 6 4 3 2 0 0 0 0 1 2 1 1 1 2 1 2 3 5 4 3 2 3 4 1 2 5 2 3 4 4 3 5 7 8 11 6 9 10 10 11 10 10 10 11 10 10 10 10 9 9 10
5 6 6 3 1 3 5 6 8 10 12 12 12 12 12 11 10 10 7 4 5 5 5 7 5 2 4 5 4 7 9 9 10 12 13 7 4 6 4 3 3 5 5 3 0 2 2 1 2 2 1 3 4 3 3 3 4 4 4 5 3 2 5 4 1 4 6 4 7 9 10 13 10 8 11 11 11 11 11 11 10 10 11 11 11 10 10 11
3 4 6 4 1 4 8 13 15 17 19 18 16 15 15 13 13 15 15 8 2 1 2 5 6 1 1 6 7 10 8 6 8 12 14 10 5 5 3 3 4 5 6 4 1 4 2 2 2 1 3 4 6 5 4 5 6 7 6 5 6 6 4 2 3 4 6 6 8 11 10 13 11 6 9 12 12 12 12 11 10 10 11 11 11 11 11 12
3 4 5 5 1 4 10 16 17 17 16 12 7 5 5 6 5 7 13 12 7 4 4 5 5 2 1 5 10 13 7 5 6 14 17 13 8 6 2 2 5 2 3 3 3 3 3 1 2 3 4 5 6 6 5 4 5 6 5 5 5 6 4 3 3 2 2 5 8 9 11 14 13 13 10 11 12 11 12 12 12 11 11 11 12 12 13 12
3 3 4 5 1 3 9 14 15 14 11 6 2 3 1 2 1 3 4 8 7 5 7 5 4 5 3 4 10 13 5 4 5 16 20 15 6 5 2 2 5 1 4 3 2 1 2 1 5 4 5 5 5 4 4 3 4 4 4 5 5 4 5 4 2 1 1 3 8 10 13 15 14 16 11 11 13 12 14 14 14 14 13 11 13 14 14 12
4 4 4 4 1 4 7 10 13 15 12 7 5 3 3 2 3 8 5 5 5 3 5 4 2 5 3 2 7 11 5 1 6 15 23 19 6 3 4 3 2 2 2 2 3 2 1 4 4 4 3 3 3 2 3 4 4 4 3 5 5 4 6 5 3 3 2 2 7 10 12 15 15 15 10 11 13 11 12 14 13 13 14 13 13 13 13 13
6 5 5 4 1 4 5 6 9 13 12 7 4 3 1 5 11 10 3 5 5 2 4 5 5 7 5 4 9 11 5 5 6 11 21 18 6 5 6 4 4 3 2 3 3 1 2 4 5 3 2 3 2 1 3 5 4 3 3 4 4 5 6 4 2 2 6 4 7 11 11 14 13 10 8 11 12 9 10 12 12 12 13 14 13 12 13 14
8 7 6 3 2 5 5 5 6 8 10 8 4 2 6 11 12 7 1 3 4 2 3 3 3 7 6 4 9 9 6 7 6 10 17 14 6 4 4 4 4 3 5 6 5 5 5 5 4 2 2 3 3 2 3 5 3 2 2 4 5 6 7 7 6 8 10 5 4 10 10 7 5 6 7 8 9 9 9 10 12 12 13 12 13 13 14 15
9 9 7 2 3 6 6 5 3 6 8 6 5 8 12 12 9 3 1 1 2 3 3 2 1 4 5 3 7 5 1 5 7 9 12 11 7 4 1 2 3 3 4 5 4 6 5 4 2 2 2 3 5 2 4 5 5 2 3 4 5 8 9 10 10 10 8 3 2 5 8 2 3 6 6 6 7 9 9 10 12 13 13 12 13 14 14 15
9 9 7 2 4 7 6 3 4 7 6 3 7 13 14 10 6 1 2 3 1 1 0 1 0 4 5 6 9 4 2 2 5 7 8 8 5 2 0 1 1 3 3 4 2 2 3 2 1 3 2 3 4 1 4 5 6 2 2 3 6 8 9 10 9 7 5 4 1 0 5 4 4 5 4 7 8 9 9 11 13 12 12 13 13 13 14 14
10 9 5 2 4 7 4 2 7 9 3 3 11 16 13 7 3 1 2 4 1 1 2 2 1 4 5 8 9 1 1 4 2 5 9 8 4 2 1 2 1 2 2 1 0 1 2 1 1 3 4 5 3 0 4 4 6 3 1 4 7 7 8 8 7 6 4 6 2 2 2 6 7 4 4 6 6 8 10 12 13 12 13 14 14 14 14 15
10 7 3 2 4 6 3 3 9 5 1 8 15 15 11 6 2 0 3 3 1 1 2 3 1 3 4 6 9 4 1 6 3 6 8 6 5 2 0 4 2 3 2 3 1 2 0 0 1 3 5 3 2 2 3 3 5 2 2 5 7 7 8 7 6 6 3 6 3 4 1 5 6 3 4 4 5 8 10 11 12 13 14 14 15 15 15 15
9 5 2 2 3 4 4 6 7 3 5 13 16 13 9 3 2 3 3 2 1 1 1 1 1 3 5 3 5 6 3 4 3 5 7 3 5 3 3 4 2 3 2 3 1 2 1 2 3 4 4 2 3 2 1 3 4 3 4 6 6 6 7 6 6 5 4 5 4 2 1 4 7 6 2 4 4 6 7 7 8 10 12 13 13 13 14 13
8 5 2 4 3 4 5 4 4 6 10 15 14 10 5 2 2 3 3 2 1 1 0 3 1 4 7 2 2 6 5 5 3 4 3 1 3 4 3 0 1 1 2 1 2 3 3 2 0 2 2 3 4 3 2 5 5 4 5 7 6 6 6 5 5 4 4 4 1 4 2 3 5 8 4 1 1 2 3 5 5 6 8 10 11 10 11 11
10 7 2 4 4 3 3 3 6 10 12 13 12 6 3 2 3 4 1 0 0 1 0 3 2 3 5 2 2 5 4 4 5 5 3 1 2 4 2 1 2 2 2 3 2 3 4 3 2 1 1 2 4 4 4 5 6 5 5 6 6 5 4 4 4 4 5 3 3 4 2 3 5 6 4 2 1 1 2 5 7 7 7 8 8 8 8 9
12 9 5 3 5 4 3 5 9 10 11 11 8 3 3 3 2 2 1 1 1 1 1 1 2 2 3 1 3 5 2 2 4 4 3 2 3 5 4 3 2 2 0 1 0 3 4 3 3 3 1 1 5 4 3 5 5 5 5 5 6 4 3 4 3 3 4 0 4 3 3 4 9 10 10 11 9 5 4 5 7 9 9 7 7 7 6 6
12 10 8 6 6 7 7 9 10 9 10 9 5 3 3 4 1 1 2 0 1 2 1 0 1 3 4 2 3 4 2 1 4 2 0 2 1 3 3 3 2 2 1 3 3 2 1 3 4 3 3 2 4 4 1 2 2 3 4 4 4 4 4 5 5 5 5 1 3 2 3 6 10 9 10 12 8 2 1 3 5 7 9 8 5 5 5 5
11 9 9 10 10 10 9 9 9 9 9 5 4 3 3 3 1 1 0 1 2 1 1 0 1 2 2 1 3 4 1 1 3 3 2 3 1 2 3 3 3 2 3 3 2 2 2 1 3 3 1 1 2 3 3 4 4 2 2 4 4 3 4 5 5 5 6 6 2 2 1 6 6 2 2 4 2 1 2 4 5 7 8 7 5 5 5 6
10 10 10 11 10 9 7 7 8 8 6 4 4 3 3 1 2 1 1 2 2 2 2 1 2 3 1 2 1 2 1 1 2 2 3 2 1 2 1 3 4 3 3 3 1 1 5 2 3 2 1 0 1 2 2 4 4 1 1 3 3 1 3 4 4 4 5 7 5 3 4 6 7 8 9 7 4 5 5 5 6 7 7 6 6 7 7 7
8 8 9 10 9 7 5 5 7 5 3 3 4 3 1 2 2 0 1 2 2 2 3 3 2 3 1 2 1 2 0 1 1 2 1 1 1 1 1 2 3 3 3 3 2 1 4 2 4 3 0 1 1 1 1 3 2 1 2 2 1 2 3 5 4 2 2 6 5 4 7 8 7 11 8 3 3 5 5 5 6 6 6 7 7 7 7 7
5 5 6 9 9 5 3 4 4 2 2 3 3 2 1 2 2 2 2 1 0 0 2 2 1 2 1 0 1 2 1 1 1 2 0 1 1 2 3 2 2 1 2 2 1 1 4 4 4 4 1 2 1 2 3 2 2 3 3 1 2 1 2 3 3 2 3 7 6 5 9 10 7 6 2 4 5 6 5 4 5 5 6 7 8 7 8 8
2 1 3 8 9 5 3 3 2 1 3 3 1 0 1 1 2 2 2 1 1 1 3 2 1 1 1 1 1 1 1 1 0 1 1 0 0 2 3 3 2 1 2 1 1 1 2 5 2 3 1 4 3 3 3 3 3 3 3 1 1 2 2 2 2 4 5 7 7 5 7 9 8 6 5 6 7 5 4 7 7 6 6 7 8 8 8 8
2 2 1 7 8 4 3 2 1 2 3 3 1 1 1 2 3 3 2 2 1 2 2 1 1 0 1 1 1 1 1 2 2 2 1 0 0 2 2 1 2 2 1 1 2 1 1 3 0 2 1 3 3 4 3 3 4 1 2 2 1 2 3 3 2 3 5 7 8 6 5 8 8 6 7 8 6 6 7 9 7 6 7 7 6 7 7 7
3 2 1 7 6 5 5 1 2 2 2 1 0 1 1 1 3 3 3 3 1 1 2 1 0 1 1 0 2 1 0 2 2 2 1 0 0 3 3 0 3 5 2 1 2 2 2 3 2 1 3 2 3 3 2 1 3 3 4 4 3 2 1 3 2 2 4 6 7 7 8 10 7 3 5 8 7 7 9 9 7 6 7 8 7 7 7 7
3 2 2 6 4 3 4 3 1 1 0 1 2 2 1 1 3 3 2 2 1 1 2 2 1 1 1 1 1 1 1 2 2 2 2 2 1 1 2 2 4 7 3 2 3 3 2 3 5 3 3 5 2 2 3 3 1 2 4 4 5 4 2 4 4 2 2 4 5 5 9 13 7 2 5 8 7 7 8 8 7 7 9 9 8 8 8 8
3 2 3 6 3 2 0 2 3 2 0 1 1 2 1 1 2 3 2 1 2 1 0 2 2 1 1 1 0 1 2 3 2 2 2 2 2 1 2 2 4 6 3 1 1 0 1 3 6 7 8 5 3 5 4 4 3 3 4 5 5 4 5 6 6 2 1 2 2 3 8 12 5 4 4 6 5 6 7 6 8 9 9 9 9 10 10 9
1 1 4 5 3 2 1 1 2 1 2 1 0 2 1 0 2 2 2 3 2 1 1 1 1 1 1 1 1 2 2 3 3 3 2 2 1 2 2 2 4 5 4 1 1 2 1 3 4 7 8 2 5 5 3 2 1 3 6 7 7 5 4 4 4 3 3 5 4 3 8 12 5 2 3 4 4 6 6 6 10 9 9 11 11 11 11 11
1 1 3 5 4 1 2 1 2 2 3 2 2 3 1 0 1 2 2 4 3 1 2 1 0 0 1 1 2 2 1 2 3 2 2 2 0 3 2 2 2 3 3 1 1 2 2 3 2 6 8 2 2 1 1 1 2 4 6 8 9 5 3 2 2 1 5 11 11 7 11 12 4 4 4 4 5 7 7 8 10 10 10 11 10 10 10 11
1 1 1 4 6 3 1 1 1 3 5 4 3 3 2 1 1 1 1 2 2 1 1 0 1 1 1 0 2 2 2 3 2 0 1 1 1 2 2 0 1 1 1 3 3 1 3 4 3 4 6 5 6 5 1 1 2 4 6 7 10 8 7 4 5 5 8 10 10 10 13 15 9 3 3 5 8 9 10 11 11 11 12 11 10 10 10 10
1 0 1 1 4 3 1 1 0 3 5 5 3 3 3 3 2 0 1 1 2 1 1 0 1 1 2 3 3 4 5 5 3 2 2 3 2 2 2 1 1 1 3 3 3 2 3 4 6 9 9 9 10 9 4 4 8 10 10 8 9 9 10 8 5 8 10 7 8 14 16 18 21 17 13 13 15 15 14 15 15 14 14 14 13 12 11 11
2 1 0 1 1 2 2 1 1 2 4 3 2 4 5 3 3 3 1 1 1 2 3 2 3 4 4 4 4 4 4 5 4 3 3 4 2 2 2 2 2 1 1 0 1 2 3 6 7 11 15 16 16 16 13 12 14 17 16 12 9 10 11 10 11 16 12 6 12 19 16 16 22 20 16 16 16 15 16 17 17 16 15 15 14 13 14 13
1 1 1 1 1 0 1 1 1 3 3 1 0 3 6 5 4 4 2 1 1 3 4 3 5 8 7 5 3 3 3 4 5 4 3 3 3 2 3 3 3 4 4 3 2 1 4 6 3 5 14 18 17 18 17 15 16 18 19 19 13 11 14 14 17 22 15 10 17 22 19 20 21 20 20 20 18 17 17 17 16 15 15 15 14 14 15 14
1 1 1 1 1 1 2 1 2 4 4 1 1 4 6 6 6 3 2 3 3 4 5 5 6 9 10 8 5 4 4 4 3 3 3 3 3 3 3 3 4 4 5 5 4 2 3 4 1 1 9 18 17 16 16 16 16 18 19 20 17 15 17 17 19 22 20 20 25 27 28 27 22 20 22 21 18 17 15 14 14 15 16 16 15 15 15 14
0 0 2 1 2 3 2 1 3 3 3 0 2 3 4 6 7 3 3 5 4 4 7 7 5 5 8 9 8 8 8 5 5 3 4 4 3 3 4 2 4 4 5 5 4 3 3 2 2 2 7 16 15 10 10 11 13 18 22 20 18 18 19 18 17 18 17 21 26 27 26 24 18 17 19 17 15 14 14 15 15 15 15 16 15 15 15 15
0 1 1 1 2 2 1 2 2 2 2 2 3 3 3 6 7 5 4 6 5 3 7 7 4 3 4 7 11 13 10 6 7 4 3 4 4 3 3 2 5 7 6 5 4 5 5 3 0 1 6 11 7 2 5 9 13 18 23 22 18 17 16 15 14 14 14 17 19 17 15 15 13 12 13 14 14 15 16 17 16 15 16 16 16 16 17 16
2 1 1 2 0 1 1 1 1 2 1 1 1 3 2 1 3 4 4 4 3 2 3 5 3 2 4 7 10 9 4 3 5 4 1 4 6 5 5 3 4 6 7 6 4 4 4 4 3 2 5 8 4 2 6 11 13 12 11 9 9 10 12 13 13 13 15 14 11 9 10 12 12 13 15 17 18 18 17 16 14 15 17 17 17 17 17 15
Wind_Direction
138 140 140 178 219 228 237 244 252 258 260 266 268 267 267 264 262 256 253 250 243 239 235 226 216 202 184 168 145 136 135 139 124 87 66 27 348 332 323 324 327 336 341 326 301 284 248 216 208 197 210 201 222 209 175 214 217 212 233 234 245 251 267 315 302 344 350 13 128 143 163 153 136 128 133 130 120 115 110 92 74 61 64 76 93 114 129 137
131 130 137 208 262 271 273 274 272 275 272 272 268 266 265 260 257 250 245 242 237 235 225 211 207 195 181 171 152 143 146 191 140 76 49 352 339 334 325 325 327 333 337 320 305 297 274 250 203 196 217 205 190 176 174 190 202 219 235 234 247 267 10 29 10 12 360 357 120 137 170 169 141 140 165 182 151 140 134 118 114 99 90 100 110 124 134 142
117 96 44 4 342 317 302 295 296 305 293 280 276 272 268 262 254 245 242 239 234 227 212 204 199 190 188 176 166 160 170 246 210 65 17 333 334 331 324 324 326 329 329 306 309 305 292 292 230 209 222 223 198 191 198 179 191 222 241 243 258 329 40 44 15 17 10 338 146 147 139 133 116 125 186 199 168 168 161 134 155 149 126 123 128 137 142 150
92 68 51 31 22 15 22 41 13 356 334 323 334 324 312 291 261 244 236 230 227 218 205 197 193 194 191 181 185 194 255 258 233 32 342 332 332 326 323 323 325 328 324 287 293 287 280 276 239 225 229 238 207 205 219 179 181 222 235 263 348 350 353 38 16 13 3 317 232 150 145 136 120 126 218 197 182 185 158 104 127 150 143 139 142 149 151 154
76 70 60 48 47 49 50 31 15 12 27 37 23 6 346 325 301 262 238 225 217 206 196 190 188 188 185 185 194 204 245 258 31 1 328 335 334 325 324 327 331 335 326 277 275 270 261 244 230 228 233 243 211 214 226 188 200 246 207 17 12 344 334 32 15 6 352 304 210 163 161 130 132 134 322 228 213 192 102 92 87 121 139 143 149 157 158 160
70 64 55 52 50 48 40 22 15 15 19 15 4 353 334 318 307 284 258 227 205 195 188 179 176 175 182 183 183 198 236 275 23 340 330 337 337 333 334 338 346 350 324 271 265 253 247 235 224 224 229 243 226 221 224 176 196 243 179 66 27 9 14 22 19 9 342 286 178 138 122 116 152 150 40 14 31 50 64 88 96 107 126 140 157 167 166 168
66 57 52 53 47 42 33 21 14 12 8 2 349 336 326 312 300 294 279 213 186 180 168 163 170 169 161 150 161 200 232 19 3 335 334 341 345 350 353 354 356 1 331 278 269 253 247 236 229 236 238 246 241 222 200 174 204 243 233 83 48 41 52 33 38 35 19 56 73 90 122 143 183 166 121 79 75 90 83 90 107 113 125 144 160 170 172 171
62 56 50 48 42 34 25 18 12 10 10 360 349 339 330 316 306 321 185 164 161 161 157 157 157 144 137 139 177 202 96 5 343 334 337 342 349 356 5 4 355 355 315 303 298 273 258 243 240 255 247 250 261 221 176 216 214 241 236 105 87 65 72 65 70 74 69 78 91 123 130 105 62 99 152 131 107 125 120 114 120 123 138 154 158 162 166 163
53 50 41 39 36 26 16 13 9 11 10 356 350 346 336 339 345 62 123 140 145 148 145 142 136 129 132 162 247 216 45 350 334 337 339 344 348 356 10 3 346 328 302 325 318 286 268 254 253 268 273 282 264 207 197 242 225 140 106 107 112 99 88 82 84 81 82 92 110 158 150 110 78 287 183 147 134 134 133 135 137 144 151 156 159 159 162 158
38 34 32 32 24 17 13 10 7 11 10 357 7 36 55 64 81 112 123 131 135 137 142 147 140 130 170 256 260 228 18 347 339 341 343 355 359 7 14 8 356 335 321 354 357 330 311 320 330 301 294 303 155 12 326 252 143 102 112 105 108 112 103 100 95 92 98 93 339 275 205 149 135 238 219 143 147 149 146 149 148 164 167 161 164 165 171 174
19 16 19 17 11 12 9 4 6 12 14 13 31 55 69 83 104 118 124 128 136 142 145 153 159 173 198 341 322 38 9 345 346 348 349 6 14 23 19 21 14 347 330 7 35 13 345 348 348 311 289 246 135 82 66 120 124 123 125 110 117 129 114 126 116 106 181 98 356 301 252 191 175 225 195 131 152 162 160 165 163 178 178 171 180 180 183 189
1 356 359 359 1 2 4 3 6 18 23 36 59 66 73 88 103 113 120 120 126 134 137 142 146 186 329 52 47 24 357 346 350 353 355 3 8 22 24 27 24 6 350 11 50 21 359 343 304 288 356 301 165 110 106 140 146 142 162 143 146 165 127 110 116 88 260 93 30 306 273 226 195 185 125 131 156 167 175 179 175 188 187 183 189 192 198 197
355 337 334 340 350 353 3 1 5 25 38 75 88 81 82 96 107 117 121 115 108 115 133 150 137 257 297 60 68 12 358 356 354 357 8 1 345 9 29 32 38 35 35 54 61 34 18 342 303 347 10 326 122 101 128 159 173 172 233 248 182 206 167 93 106 147 237 118 8 287 289 236 176 154 131 147 167 172 189 193 187 195 190 195 198 198 208 201
343 317 316 328 345 351 355 355 12 36 70 109 108 99 96 104 111 128 135 121 96 95 110 140 132 132 63 85 113 21 13 9 4 4 10 9 348 358 51 39 48 55 57 69 67 49 29 339 321 111 36 4 91 140 161 162 203 205 241 245 228 246 152 96 86 238 181 141 232 275 282 256 148 150 156 164 176 181 200 201 195 200 193 200 203 205 213 205
358 331 317 311 327 339 343 358 29 59 113 122 116 109 105 112 115 135 153 146 99 93 97 114 121 228 121 102 143 2 14 15 9 2 0 6 357 346 38 27 42 55 59 67 61 45 12 323 264 116 77 66 144 186 192 185 210 210 245 245 228 252 134 109 81 22 27 143 215 247 274 282 136 152 167 169 184 194 209 211 201 203 201 203 204 208 217 211
23 5 331 292 298 334 326 40 83 113 125 122 114 109 104 108 110 123 152 174 182 123 101 105 331 306 117 90 51 1 14 10 360 355 356 360 353 344 344 329 47 58 57 56 47 32 3 13 19 4 141 183 209 231 244 225 213 196 236 276 280 278 268 118 99 52 14 330 230 230 262 300 134 149 167 176 188 199 214 220 211 209 207 206 208 209 212 213
34 27 12 337 91 120 152 116 112 126 127 125 119 114 108 102 100 102 119 135 127 113 88 46 352 347 68 41 346 351 357 354 353 356 353 350 359 353 313 256 219 304 358 120 321 256 299 10 158 229 197 221 289 272 264 255 252 192 221 282 304 290 290 276 116 66 355 297 255 240 241 278 264 160 168 185 188 201 216 222 217 215 213 211 213 211 210 214
22 22 18 6 90 131 144 126 120 125 120 118 116 111 105 95 85 74 66 106 133 133 103 38 8 146 73 35 5 341 340 342 354 2 354 349 1 355 327 280 257 268 264 226 230 338 287 260 221 222 93 34 14 318 291 332 330 345 347 311 309 290 278 278 38 38 351 299 273 268 251 269 266 172 170 188 190 204 216 222 223 220 218 216 217 218 216 216
335 353 6 5 77 146 148 136 127 125 120 114 109 105 103 99 90 67 43 39 87 147 99 16 357 223 38 25 358 334 323 316 346 7 2 358 336 320 311 287 256 272 285 252 43 16 306 256 237 256 43 21 12 3 344 354 341 338 338 317 314 303 288 333 34 43 359 308 271 270 266 273 273 225 193 187 189 209 219 222 224 222 221 219 219 220 220 220
309 315 344 352 22 155 157 151 142 136 133 125 112 117 133 132 118 70 40 43 57 45 53 27 9 42 32 11 351 340 313 265 352 17 7 354 321 298 309 272 238 240 345 317 20 23 283 302 59 24 24 8 358 358 338 332 328 322 311 296 296 291 291 11 44 76 8 305 280 278 276 274 276 272 243 185 185 210 219 221 221 221 220 219 220 221 220 223
329 323 339 346 353 168 169 173 172 168 169 178 245 276 242 290 293 122 75 62 61 41 61 55 27 55 32 349 352 347 315 224 18 18 8 358 316 283 340 309 256 182 57 342 316 302 270 46 61 29 15 2 347 341 316 304 302 297 295 293 289 287 301 330 34 129 175 289 289 290 284 275 271 278 261 179 186 212 214 218 220 219 220 220 222 223 223 224
351 351 349 348 322 180 173 182 192 196 203 215 247 294 345 335 130 136 141 99 75 23 54 59 40 59 40 5 359 336 311 295 18 16 5 357 356 346 349 332 311 48 65 286 258 215 127 74 48 18 1 320 318 327 293 283 280 281 293 291 293 334 329 313 140 160 228 258 291 301 296 282 274 274 253 184 196 218 215 219 221 219 221 222 223 222 223 222
357 353 347 344 250 183 177 179 188 198 207 211 234 294 56 126 136 140 151 109 97 18 46 45 35 36 29 39 1 339 5 25 354 10 359 350 12 16 347 10 47 59 34 348 330 283 102 68 28 7 318 295 321 354 290 273 257 262 320 307 306 352 339 300 168 232 272 251 288 300 289 279 274 265 234 201 210 227 221 223 225 224 226 226 226 223 221 222
358 354 349 343 188 180 182 172 173 191 198 200 206 170 143 139 139 143 151 113 103 90 81 51 35 31 29 28 347 341 57 49 2 4 357 353 4 334 342 24 29 62 45 20 42 74 73 55 19 340 260 287 301 336 333 302 271 155 46 343 320 329 316 295 295 297 285 243 262 294 287 272 240 216 220 204 209 226 223 223 226 226 231 232 231 229 225 224
358 357 359 355 177 176 176 161 157 178 178 181 177 162 154 148 150 156 293 171 109 109 139 163 133 37 22 354 350 343 67 56 29 6 357 2 352 314 42 11 329 59 49 7 60 89 68 53 3 297 230 258 270 317 25 331 294 149 80 10 328 313 301 295 298 300 294 239 174 303 308 319 170 212 220 177 189 221 218 218 226 225 225 228 230 230 228 227
356 358 2 1 169 164 163 155 165 162 146 146 168 163 158 159 173 216 295 233 134 70 108 163 186 27 15 349 358 343 244 40 33 6 3 9 350 297 43 358 358 62 45 5 41 93 66 76 302 297 259 258 254 222 42 344 303 288 90 357 320 304 293 293 298 297 304 314 104 312 300 300 296 275 209 165 195 224 215 217 228 226 220 222 225 227 226 225
352 354 0 15 167 173 180 167 165 161 142 167 167 160 160 173 176 78 280 239 158 3 355 31 347 17 23 349 348 325 254 348 356 27 17 3 346 254 277 25 68 80 65 354 355 122 72 118 248 289 259 262 260 107 39 356 310 308 79 326 310 295 284 289 294 276 291 320 310 158 264 280 291 304 138 156 213 232 227 224 225 224 220 220 222 223 223 222
351 353 4 40 163 182 205 160 156 166 214 169 164 162 167 182 186 291 275 258 67 328 357 42 15 17 16 342 5 61 42 328 326 31 9 349 349 279 130 39 23 89 101 271 308 92 41 28 25 309 270 277 340 17 14 330 300 344 15 309 296 284 281 279 278 271 289 314 282 156 186 274 274 279 133 156 238 246 242 236 228 223 219 219 221 222 222 222
357 2 28 97 134 150 163 158 157 183 174 162 164 166 171 191 236 258 263 260 22 86 31 26 177 7 346 306 28 53 41 359 12 359 342 355 30 20 62 46 31 91 139 257 351 100 149 45 15 308 294 345 360 340 316 269 280 345 326 282 262 258 265 254 256 278 283 280 270 108 46 295 290 288 202 172 242 256 255 253 239 226 217 216 219 220 222 222
17 26 88 137 130 118 131 135 144 158 156 159 163 166 183 229 243 239 245 256 16 108 303 357 302 317 331 286 82 42 37 43 11 331 342 98 65 57 73 24 260 115 147 173 67 97 117 75 294 290 330 349 325 297 246 243 266 315 295 265 250 233 232 242 248 270 272 254 177 75 35 307 299 291 274 162 215 265 281 289 277 242 221 215 214 216 219 218
31 35 85 159 168 151 135 117 133 144 149 156 160 165 209 226 242 254 261 198 50 108 205 24 25 316 346 5 59 25 35 54 3 351 37 103 63 53 48 248 252 252 199 162 115 132 164 196 182 134 16 326 291 257 209 221 246 272 271 275 282 243 215 234 220 214 256 270 89 71 3 273 262 273 288 351 7 205 247 281 287 273 250 226 210 209 212 213
32 33 48 143 177 168 141 136 139 143 146 153 161 186 230 219 233 258 63 196 248 40 59 44 31 1 354 349 27 6 347 53 14 6 27 13 57 49 18 18 356 280 245 47 265 178 187 183 133 123 151 255 286 271 194 195 223 256 276 297 306 294 270 264 252 247 267 324 106 82 3 275 250 259 270 278 276 251 228 257 275 277 272 251 209 198 203 205
38 40 53 87 132 129 116 133 141 144 145 149 174 213 247 247 241 80 80 318 329 38 42 277 350 332 307 283 24 5 301 14 1 358 28 274 153 83 62 44 360 282 343 352 311 270 178 137 157 178 162 194 273 308 279 206 280 312 320 330 320 322 319 292 294 296 289 358 130 122 2 277 261 270 270 273 283 289 223 250 261 268 267 257 219 198 204 206
51 56 70 81 97 105 109 129 138 140 145 160 199 211 255 262 81 66 269 56 56 83 133 23 282 276 306 359 24 349 270 122 356 321 268 252 227 102 109 78 32 313 285 307 325 320 298 205 179 188 128 178 250 344 349 311 311 319 345 322 296 307 311 294 308 307 299 311 295 155 222 256 263 310 270 263 282 160 242 249 247 253 252 252 242 224 225 220
60 63 72 74 73 85 103 128 138 142 159 193 212 222 260 270 118 178 223 105 114 163 161 142 264 249 182 110 102 3 344 102 26 313 290 295 350 34 75 66 37 358 299 296 27 319 265 260 97 86 23 293 218 48 1 298 279 215 309 284 265 325 306 283 296 302 301 305 284 203 229 250 265 284 273 265 260 241 248 245 241 251 244 236 241 236 233 229
57 57 59 55 46 56 96 130 139 146 193 221 229 243 278 36 58 309 20 78 126 164 177 184 252 263 186 139 150 104 122 297 326 286 269 12 358 42 79 61 42 17 343 329 8 352 284 272 118 125 99 87 42 30 294 295 307 262 274 266 96 45 305 275 275 256 244 274 262 228 260 271 282 286 272 227 233 228 223 230 236 252 250 235 237 238 233 231
40 53 52 36 25 36 96 132 141 162 244 248 257 291 33 49 18 16 41 61 67 284 226 206 264 304 331 153 132 103 133 226 264 277 252 129 150 130 135 112 72 34 27 347 332 69 313 289 165 167 191 106 59 303 236 244 293 292 287 85 93 54 276 265 275 277 254 266 269 259 275 284 291 295 228 186 245 226 205 245 255 253 252 242 244 243 234 232
3 87 69 23 13 27 104 132 132 220 253 252 259 357 41 55 43 46 60 31 348 255 249 272 12 9 322 310 108 95 337 320 168 302 311 226 185 139 152 139 122 63 43 324 289 101 302 290 175 161 193 129 152 258 240 197 219 285 313 75 241 280 261 222 261 301 293 285 283 270 278 278 263 255 249 255 261 236 250 295 288 275 265 250 250 249 241 239
279 233 113 12 6 34 97 141 204 257 243 236 213 136 94 78 80 63 29 340 295 251 263 353 20 282 269 333 5 111 328 331 336 326 307 302 19 165 174 137 148 150 101 282 292 67 231 276 289 145 155 137 183 228 233 183 163 215 260 208 214 292 284 269 294 307 286 286 291 288 289 273 251 239 250 262 262 255 287 303 290 285 286 268 259 255 245 241
274 244 76 4 3 62 73 73 233 251 248 267 345 96 84 97 106 72 25 360 300 287 341 20 52 248 203 260 304 252 205 284 297 310 286 245 269 180 167 162 153 147 140 267 280 288 214 237 277 178 156 209 221 206 233 229 158 182 213 205 195 190 254 279 264 247 265 277 285 289 287 274 261 232 245 262 276 277 287 291 275 278 285 274 263 255 251 252
266 222 39 355 359 80 77 64 52 338 197 75 72 85 77 112 118 106 65 6 323 9 6 331 323 302 248 242 237 198 239 257 246 268 254 198 245 228 146 167 160 149 159 214 226 249 229 239 274 274 248 256 238 98 25 7 34 236 230 216 218 203 198 267 262 209 228 261 273 288 288 279 270 185 245 263 271 274 278 277 270 270 272 268 262 256 255 255
254 215 12 357 21 90 55 85 57 348 265 91 66 84 82 142 129 128 142 175 272 246 209 302 319 304 281 307 321 201 252 266 224 230 254 224 243 349 81 153 156 158 191 277 151 174 332 273 270 271 263 258 93 81 51 28 4 296 260 241 242 223 211 247 272 281 215 239 283 292 272 274 272 141 217 250 249 267 274 263 261 264 263 263 263 265 265 258
267 137 22 11 50 57 322 127 120 4 74 73 37 84 70 157 137 134 173 189 211 238 226 238 275 276 291 350 302 222 225 257 234 222 261 252 238 38 66 157 151 170 212 277 139 142 187 251 258 275 270 214 113 107 99 69 314 256 242 230 230 229 217 245 285 331 294 246 232 242 251 263 286 120 214 246 247 258 260 248 254 260 263 264 265 269 273 270
47 100 37 14 20 357 286 222 150 142 116 125 136 111 90 289 153 165 201 197 194 229 234 223 240 248 63 29 267 233 198 261 244 228 274 263 143 60 65 151 164 197 209 327 22 148 195 242 262 296 297 270 161 169 136 157 215 232 238 217 210 202 97 41 297 303 275 250 231 238 258 262 275 110 163 206 223 238 246 251 256 260 266 271 271 272 273 273
133 137 82 30 28 35 279 312 112 140 138 143 138 142 175 178 137 287 262 181 188 270 267 37 63 188 148 144 242 231 233 250 253 10 355 277 192 105 90 103 256 252 67 25 351 284 245 268 261 282 299 292 290 309 349 298 268 246 237 208 197 182 148 178 257 247 249 248 223 221 248 263 271 243 232 271 276 275 281 285 287 288 290 293 291 285 281 276
235 311 141 93 42 54 88 352 349 139 145 158 148 156 197 183 134 153 282 209 170 201 260 153 134 205 189 198 238 239 220 217 240 309 291 247 215 105 101 198 249 347 42 24 325 294 268 269 245 245 257 261 275 293 306 310 297 276 259 220 188 182 184 198 243 247 245 258 247 235 243 266 277 276 281 293 294 296 300 304 307 307 305 305 302 295 288 280
274 298 63 165 86 79 102 112 162 130 143 184 169 150 180 181 141 150 216 257 163 194 242 213 189 210 191 185 235 247 212 204 222 257 256 240 230 104 130 193 205 191 121 100 270 247 256 263 237 236 249 255 266 281 289 292 284 276 274 257 205 176 183 196 220 237 247 275 267 256 250 261 274 281 290 294 295 298 302 305 309 307 303 302 299 294 288 281
304 63 39 337 308 115 105 126 149 115 112 137 107 157 177 179 174 187 193 156 178 215 229 217 210 221 215 198 223 239 210 214 217 214 224 238 232 172 165 184 174 166 175 188 193 205 259 269 232 223 259 265 268 274 277 276 271 268 271 268 249 200 184 197 223 235 238 245 257 268 274 271 275 286 291 292 295 297 299 302 303 300 295 294 293 292 289 284
67 88 85 331 336 63 52 42 138 134 120 78 208 188 195 196 194 192 134 146 201 213 216 237 230 216 214 212 223 242 226 227 247 226 193 202 222 214 218 206 164 169 197 191 179 202 251 261 174 145 278 280 276 270 266 263 267 271 267 262 258 236 211 209 227 237 239 245 255 267 275 275 276 282 284 288 292 292 293 294 290 286 287 290 290 290 288 286
183 144 130 134 92 82 67 113 154 158 141 147 234 189 197 215 204 177 151 191 211 179 189 234 248 202 206 212 216 235 235 243 288 271 182 183 210 214 239 232 142 161 207 195 173 198 228 248 96 103 288 286 282 271 260 259 269 277 275 267 257 249 238 230 236 242 243 249 255 261 269 274 275 275 278 283 286 285 286 288 288 288 291 295 298 298 297 295
55 70 152 173 120 105 147 139 143 225 191 192 220 175 186 222 206 186 195 211 228 193 185 216 230 166 197 217 223 239 247 260 291 295 192 214 240 229 235 205 129 147 187 196 174 179 206 239 130 162 275 284 286 276 275 284 283 275 274 272 258 245 241 233 230 231 230 240 254 261 264 268 272 280 287 291 293 296 299 300 302 303 302 303 305 304 302 299
117 87 226 272 92 157 211 152 157 246 231 182 193 161 166 220 176 184 210 206 214 228 203 215 217 189 213 220 226 247 286 319 305 313 280 253 262 260 255 230 174 167 171 177 179 178 199 239 270 263 271 277 281 348 322 311 299 281 273 277 267 254 251 242 230 227 227 231 250 260 253 262 284 301 302 302 304 305 305 306 307 306 305 305 303 299 297 296